Location: Ernsee
(50.8780°N, 12.0389°E)
Time: 07:59:11
(UTC+00:00)

USA 238 DEB - Pass Details

Date: 20 January 2020
Orbit: 1021 x 1191 km, 63.4° (Epoch: 20 February)

Event Time Altitude Azimuth Distance (km) Brightness Sun altitude
Exits shadow 03:03:43 52° 41° (NE) 1,395 4.4 -37.3°
Drops below altitude 10° 03:10:36 10° 109° (ESE) 3,073 6.7 -36.2°
Sets 03:13:28 0° 115° (ESE) 4,050 7.4 -35.8°
